Tracking 22079 objects as of 5-Dec-2020
HD Live streaming from Space Station
objects crossing your sky now

SCOUT A-1 DEB

Track SCOUT A-1 DEB now!
10-day predictions


NORAD ID: 18496
Int'l Code: 1973-081D
Perigee: 872.8 km
Apogee: 1,070.2 km
Inclination: 90.0 °
Period: 104.4 minutes
Semi major axis: 7342 km
RCS: 0.052 m2 (small)
Launch date: October 30, 1973
Source: United States (US)
Launch site: AIR FORCE WESTERN TEST RANGE (AFWTR)

Note: This is SATELLITE DEBRIS
aabbcc
Your satellite tracking list
Your tracking list is empty




NASA's NSSDC Master Catalog

Two Line Element Set (TLE):
1 18496U 73081D   20339.60693257  .00000179  00000-0  15288-3 0  9996
2 18496  90.0210 119.6043 0134450 230.6186 264.9436 13.79868769648588
Source of the keplerian elements: AFSPC